�N����,�����b,���ԉ��x,���Ԏ��x,��󒲎�,����,�ݼ�
2004/1/1,0:00:00,9.2 ,52.9 ,9.3 ,11.4 ,8.8 
2004/1/1,0:15:00,9.2 ,53.1 ,9.3 ,11.4 ,8.8 
2004/1/1,0:30:00,9.2 ,53.6 ,9.3 ,11.4 ,8.8 
2004/1/1,0:45:00,9.1 ,53.5 ,9.3 ,11.4 ,8.8 
2004/1/1,1:00:00,9.1 ,53.4 ,9.3 ,11.4 ,8.7 
2004/1/1,1:15:00,9.1 ,53.1 ,9.3 ,11.4 ,8.7 
2004/1/1,1:30:00,9.1 ,52.9 ,9.2 ,11.4 ,8.7 
2004/1/1,1:45:00,9.1 ,53.1 ,9.2 ,11.4 ,8.7 
2004/1/1,2:00:00,9.1 ,52.8 ,9.2 ,11.4 ,8.7 
2004/1/1,2:15:00,9.1 ,52.9 ,9.2 ,11.4 ,8.7 
2004/1/1,2:30:00,9.1 ,52.6 ,9.2 ,11.4 ,8.7 
2004/1/1,2:45:00,9.1 ,52.6 ,9.2 ,11.4 ,8.6 
2004/1/1,3:00:00,9.1 ,52.7 ,9.2 ,11.4 ,8.6 
2004/1/1,3:15:00,9.0 ,52.2 ,9.2 ,11.4 ,8.6 
2004/1/1,3:30:00,9.0 ,52.5 ,9.1 ,11.4 ,8.5 
2004/1/1,3:45:00,9.0 ,52.5 ,9.1 ,11.4 ,8.5 
2004/1/1,4:00:00,9.0 ,52.3 ,9.1 ,11.4 ,8.4 
2004/1/1,4:15:00,9.0 ,52.4 ,9.1 ,11.4 ,8.4 
2004/1/1,4:30:00,8.9 ,52.0 ,9.0 ,11.4 ,8.3 
2004/1/1,4:45:00,8.9 ,52.4 ,9.0 ,11.4 ,8.3 
2004/1/1,5:00:00,8.9 ,52.0 ,9.0 ,11.4 ,8.3 
2004/1/1,5:15:00,8.9 ,52.1 ,8.9 ,11.4 ,8.2 
2004/1/1,5:30:00,8.8 ,52.0 ,8.9 ,11.4 ,8.2 
2004/1/1,5:45:00,8.8 ,51.8 ,8.9 ,11.4 ,8.1 
2004/1/1,6:00:00,8.8 ,52.0 ,8.9 ,11.4 ,8.1 
2004/1/1,6:15:00,8.8 ,51.8 ,8.8 ,11.4 ,8.1 
2004/1/1,6:30:00,8.7 ,51.4 ,8.8 ,11.4 ,8.0 
2004/1/1,6:45:00,8.7 ,51.4 ,8.8 ,11.4 ,8.0 
2004/1/1,7:00:00,8.7 ,51.7 ,8.7 ,11.4 ,7.9 
2004/1/1,7:15:00,8.6 ,51.8 ,8.7 ,11.3 ,7.9 
2004/1/1,7:30:00,8.6 ,51.9 ,8.7 ,11.3 ,7.9 
2004/1/1,7:45:00,8.6 ,51.9 ,8.7 ,11.3 ,7.8 
2004/1/1,8:00:00,8.6 ,51.6 ,8.7 ,11.3 ,7.9 
2004/1/1,8:15:00,8.6 ,51.8 ,8.8 ,11.3 ,8.1 
2004/1/1,8:30:00,8.6 ,51.8 ,8.9 ,11.3 ,8.2 
2004/1/1,8:45:00,8.6 ,51.8 ,9.1 ,11.3 ,8.4 
2004/1/1,9:00:00,8.6 ,52.6 ,9.1 ,11.3 ,8.4 
2004/1/1,9:15:00,8.6 ,52.2 ,9.2 ,11.3 ,8.4 
2004/1/1,9:30:00,8.6 ,52.3 ,9.2 ,11.3 ,8.4 
2004/1/1,9:45:00,8.6 ,51.5 ,9.4 ,11.3 ,8.6 
2004/1/1,10:00:00,8.6 ,51.6 ,9.5 ,11.3 ,8.7 
2004/1/1,10:15:00,8.7 ,51.9 ,9.7 ,11.3 ,8.8 
2004/1/1,10:30:00,8.7 ,51.9 ,9.8 ,11.3 ,8.9 
2004/1/1,10:45:00,8.7 ,51.9 ,9.9 ,11.3 ,9.0 
2004/1/1,11:00:00,8.8 ,52.0 ,10.1 ,11.2 ,9.1 
2004/1/1,11:15:00,8.8 ,51.9 ,10.3 ,11.2 ,9.1 
2004/1/1,11:30:00,8.8 ,52.1 ,10.4 ,11.2 ,9.2 
2004/1/1,11:45:00,8.9 ,52.1 ,10.6 ,11.2 ,9.3 
2004/1/1,12:00:00,8.9 ,52.0 ,10.7 ,11.2 ,9.4 
2004/1/1,12:15:00,9.0 ,51.9 ,10.8 ,11.2 ,9.4 
2004/1/1,12:30:00,9.0 ,51.9 ,10.8 ,11.2 ,9.5 
2004/1/1,12:45:00,9.1 ,51.8 ,10.9 ,11.2 ,9.6 
2004/1/1,13:00:00,9.1 ,51.7 ,10.8 ,11.2 ,9.6 
2004/1/1,13:15:00,9.1 ,51.5 ,10.8 ,11.2 ,9.7 
2004/1/1,13:30:00,9.2 ,51.5 ,10.7 ,11.2 ,9.7 
2004/1/1,13:45:00,9.2 ,51.4 ,10.7 ,11.2 ,9.8 
2004/1/1,14:00:00,9.3 ,51.4 ,10.7 ,11.2 ,9.8 
2004/1/1,14:15:00,9.3 ,51.4 ,10.7 ,11.2 ,9.8 
2004/1/1,14:30:00,9.3 ,51.3 ,10.7 ,11.2 ,9.9 
2004/1/1,14:45:00,9.4 ,51.3 ,10.6 ,11.2 ,9.9 
2004/1/1,15:00:00,9.4 ,51.3 ,10.6 ,11.2 ,9.9 
2004/1/1,15:15:00,9.4 ,51.3 ,10.6 ,11.2 ,9.9 
2004/1/1,15:30:00,9.5 ,51.2 ,10.6 ,11.2 ,9.9 
2004/1/1,15:45:00,9.5 ,51.1 ,10.6 ,11.3 ,9.9 
2004/1/1,16:00:00,9.5 ,51.1 ,10.6 ,11.3 ,9.9 
2004/1/1,16:15:00,9.5 ,51.1 ,10.6 ,11.3 ,9.8 
2004/1/1,16:30:00,9.5 ,51.1 ,10.6 ,11.3 ,9.8 
2004/1/1,16:45:00,9.6 ,51.2 ,10.5 ,11.3 ,9.8 
2004/1/1,17:00:00,9.6 ,51.4 ,10.5 ,11.3 ,9.8 
2004/1/1,17:15:00,9.6 ,51.4 ,10.5 ,11.3 ,9.8 
2004/1/1,17:30:00,9.6 ,51.3 ,10.5 ,11.3 ,9.8 
2004/1/1,17:45:00,9.6 ,51.5 ,10.5 ,11.3 ,9.8 
2004/1/1,18:00:00,9.6 ,51.6 ,10.5 ,11.3 ,9.8 
2004/1/1,18:15:00,9.7 ,51.9 ,10.5 ,11.3 ,9.7 
2004/1/1,18:30:00,9.7 ,52.1 ,10.5 ,11.3 ,9.7 
2004/1/1,18:45:00,9.7 ,52.2 ,10.4 ,11.3 ,9.7 
2004/1/1,19:00:00,9.7 ,52.4 ,10.4 ,11.3 ,9.7 
2004/1/1,19:15:00,9.7 ,52.5 ,10.4 ,11.3 ,9.7 
2004/1/1,19:30:00,9.7 ,52.9 ,10.4 ,11.3 ,9.7 
2004/1/1,19:45:00,9.7 ,52.9 ,10.4 ,11.3 ,9.6 
2004/1/1,20:00:00,9.7 ,52.9 ,10.4 ,11.3 ,9.6 
2004/1/1,20:15:00,9.7 ,53.0 ,10.4 ,11.4 ,9.6 
2004/1/1,20:30:00,9.7 ,53.2 ,10.3 ,11.4 ,9.5 
2004/1/1,20:45:00,9.7 ,53.4 ,10.3 ,11.4 ,9.5 
2004/1/1,21:00:00,9.7 ,53.4 ,10.3 ,11.4 ,9.5 
2004/1/1,21:15:00,9.7 ,53.8 ,10.3 ,11.4 ,9.5 
2004/1/1,21:30:00,9.7 ,53.9 ,10.3 ,11.4 ,9.5 
2004/1/1,21:45:00,9.7 ,53.8 ,10.3 ,11.4 ,9.5 
2004/1/1,22:00:00,9.7 ,54.2 ,10.3 ,11.4 ,9.5 
2004/1/1,22:15:00,9.7 ,54.4 ,10.3 ,11.4 ,9.5 
2004/1/1,22:30:00,9.7 ,54.4 ,10.3 ,11.4 ,9.5 
2004/1/1,22:45:00,9.7 ,54.6 ,10.3 ,11.4 ,9.5 
2004/1/1,23:00:00,9.7 ,54.6 ,10.3 ,11.4 ,9.5 
2004/1/1,23:15:00,9.7 ,54.7 ,10.2 ,11.4 ,9.5 
2004/1/1,23:30:00,9.7 ,54.7 ,10.2 ,11.4 ,9.5 
2004/1/1,23:45:00,9.7 ,55.0 ,10.2 ,11.4 ,9.5 
2004/1/2,0:00:00,9.7 ,55.1 ,10.2 ,11.5 ,9.5 
2004/1/2,0:15:00,9.7 ,55.3 ,10.2 ,11.5 ,9.5 
2004/1/2,0:30:00,9.8 ,55.5 ,10.2 ,11.5 ,9.5 
2004/1/2,0:45:00,9.8 ,55.7 ,10.2 ,11.5 ,9.5 
2004/1/2,1:00:00,9.8 ,55.8 ,10.2 ,11.5 ,9.5 
2004/1/2,1:15:00,9.8 ,55.7 ,10.2 ,11.5 ,9.5 
2004/1/2,1:30:00,9.8 ,55.8 ,10.2 ,11.5 ,9.5 
2004/1/2,1:45:00,9.8 ,55.8 ,10.2 ,11.5 ,9.5 
2004/1/2,2:00:00,9.8 ,55.9 ,10.2 ,11.5 ,9.5 
2004/1/2,2:15:00,9.8 ,55.9 ,10.2 ,11.5 ,9.5 
2004/1/2,2:30:00,9.8 ,55.8 ,10.2 ,11.5 ,9.5 
2004/1/2,2:45:00,9.8 ,55.8 ,10.2 ,11.5 ,9.5 
2004/1/2,3:00:00,9.8 ,55.9 ,10.2 ,11.5 ,9.5 
2004/1/2,3:15:00,9.8 ,55.9 ,10.2 ,11.5 ,9.5 
2004/1/2,3:30:00,9.8 ,55.9 ,10.2 ,11.5 ,9.5 
2004/1/2,3:45:00,9.8 ,56.2 ,10.2 ,11.5 ,9.5 
2004/1/2,4:00:00,9.8 ,56.0 ,10.2 ,11.6 ,9.5 
2004/1/2,4:15:00,9.8 ,56.0 ,10.2 ,11.6 ,9.5 
2004/1/2,4:30:00,9.8 ,56.2 ,10.2 ,11.6 ,9.5 
2004/1/2,4:45:00,9.8 ,56.1 ,10.2 ,11.6 ,9.4 
2004/1/2,5:00:00,9.8 ,56.1 ,10.2 ,11.6 ,9.4 
2004/1/2,5:15:00,9.8 ,56.1 ,10.2 ,11.6 ,9.4 
2004/1/2,5:30:00,9.8 ,56.1 ,10.1 ,11.6 ,9.4 
2004/1/2,5:45:00,9.8 ,56.1 ,10.1 ,11.6 ,9.4 
2004/1/2,6:00:00,9.8 ,56.5 ,10.1 ,11.6 ,9.4 
2004/1/2,6:15:00,9.8 ,56.4 ,10.1 ,11.6 ,9.4 
2004/1/2,6:30:00,9.8 ,56.4 ,10.1 ,11.6 ,9.4 
2004/1/2,6:45:00,9.8 ,56.2 ,10.1 ,11.6 ,9.4 
2004/1/2,7:00:00,9.8 ,56.4 ,10.1 ,11.6 ,9.3 
2004/1/2,7:15:00,9.8 ,56.3 ,10.1 ,11.6 ,9.3 
2004/1/2,7:30:00,9.8 ,56.5 ,10.1 ,11.6 ,9.3 
2004/1/2,7:45:00,9.8 ,56.5 ,10.1 ,11.6 ,9.3 
2004/1/2,8:00:00,9.8 ,56.5 ,10.0 ,11.6 ,9.3 
2004/1/2,8:15:00,9.8 ,56.6 ,10.0 ,11.6 ,9.3 
2004/1/2,8:30:00,9.8 ,56.8 ,10.1 ,11.6 ,9.3 
2004/1/2,8:45:00,9.8 ,57.0 ,10.0 ,11.7 ,9.3 
2004/1/2,9:00:00,9.8 ,57.0 ,10.0 ,11.7 ,9.4 
2004/1/2,9:15:00,9.8 ,57.5 ,10.0 ,11.7 ,9.4 
2004/1/2,9:30:00,9.8 ,57.6 ,10.0 ,11.7 ,9.4 
2004/1/2,9:45:00,9.8 ,57.4 ,10.0 ,11.7 ,9.4 
2004/1/2,10:00:00,9.8 ,57.5 ,10.0 ,11.7 ,9.4 
2004/1/2,10:15:00,9.8 ,58.0 ,10.0 ,11.7 ,9.4 
2004/1/2,10:30:00,9.8 ,57.7 ,10.1 ,11.7 ,9.4 
2004/1/2,10:45:00,9.8 ,57.7 ,10.0 ,11.7 ,9.4 
2004/1/2,11:00:00,9.8 ,58.3 ,10.0 ,11.7 ,9.4 
2004/1/2,11:15:00,9.8 ,57.9 ,10.1 ,11.7 ,9.4 
2004/1/2,11:30:00,9.8 ,58.0 ,10.0 ,11.7 ,9.4 
2004/1/2,11:45:00,9.8 ,57.9 ,10.0 ,11.7 ,9.4 
2004/1/2,12:00:00,9.8 ,58.1 ,10.1 ,11.7 ,9.4 
2004/1/2,12:15:00,9.8 ,58.1 ,10.1 ,11.7 ,9.4 
2004/1/2,12:30:00,9.8 ,58.1 ,10.1 ,11.7 ,9.4 
2004/1/2,12:45:00,9.8 ,58.5 ,10.0 ,11.7 ,9.4 
2004/1/2,13:00:00,9.8 ,57.9 ,10.0 ,11.7 ,9.4 
2004/1/2,13:15:00,9.8 ,58.2 ,10.0 ,11.7 ,9.4 
2004/1/2,13:30:00,9.8 ,58.0 ,10.0 ,11.7 ,9.4 
2004/1/2,13:45:00,9.8 ,58.1 ,10.0 ,11.7 ,9.4 
2004/1/2,14:00:00,9.8 ,58.0 ,10.0 ,11.7 ,9.4 
2004/1/2,14:15:00,9.8 ,57.9 ,10.0 ,11.7 ,9.4 
2004/1/2,14:30:00,9.8 ,58.0 ,10.0 ,11.7 ,9.4 
2004/1/2,14:45:00,9.8 ,58.5 ,10.0 ,11.7 ,9.4 
2004/1/2,15:00:00,9.8 ,58.5 ,10.0 ,11.7 ,9.4 
2004/1/2,15:15:00,9.8 ,58.7 ,10.0 ,11.7 ,9.4 
2004/1/2,15:30:00,9.8 ,58.5 ,10.0 ,11.7 ,9.4 
2004/1/2,15:45:00,9.8 ,58.7 ,10.0 ,11.7 ,9.4 
2004/1/2,16:00:00,9.8 ,58.7 ,10.0 ,11.7 ,9.4 
2004/1/2,16:15:00,9.8 ,58.7 ,10.0 ,11.8 ,9.4 
2004/1/2,16:30:00,9.8 ,58.5 ,10.0 ,11.8 ,9.3 
2004/1/2,16:45:00,9.8 ,58.6 ,10.0 ,11.8 ,9.3 
2004/1/2,17:00:00,9.8 ,58.5 ,10.0 ,11.8 ,9.3 
2004/1/2,17:15:00,9.8 ,58.3 ,10.0 ,11.8 ,9.3 
2004/1/2,17:30:00,9.8 ,58.2 ,10.0 ,11.8 ,9.3 
2004/1/2,17:45:00,9.8 ,58.3 ,9.9 ,11.8 ,9.3 
2004/1/2,18:00:00,9.8 ,58.1 ,9.9 ,11.8 ,9.3 
2004/1/2,18:15:00,9.8 ,58.2 ,9.9 ,11.8 ,9.3 
2004/1/2,18:30:00,9.8 ,58.5 ,9.9 ,11.8 ,9.2 
2004/1/2,18:45:00,9.8 ,58.3 ,9.9 ,11.8 ,9.2 
2004/1/2,19:00:00,9.8 ,58.5 ,9.9 ,11.8 ,9.2 
2004/1/2,19:15:00,9.8 ,58.4 ,9.9 ,11.8 ,9.2 
2004/1/2,19:30:00,9.8 ,58.4 ,9.9 ,11.8 ,9.2 
2004/1/2,19:45:00,9.7 ,58.8 ,9.9 ,11.8 ,9.2 
2004/1/2,20:00:00,9.7 ,58.5 ,9.8 ,11.8 ,9.1 
2004/1/2,20:15:00,9.7 ,58.9 ,9.8 ,11.8 ,9.1 
2004/1/2,20:30:00,9.7 ,58.6 ,9.8 ,11.8 ,9.1 
2004/1/2,20:45:00,9.7 ,59.0 ,9.8 ,11.8 ,9.1 
2004/1/2,21:00:00,9.7 ,58.8 ,9.8 ,11.8 ,9.1 
2004/1/2,21:15:00,9.7 ,59.3 ,9.8 ,11.8 ,9.1 
2004/1/2,21:30:00,9.7 ,58.9 ,9.8 ,11.8 ,9.0 
2004/1/2,21:45:00,9.6 ,58.8 ,9.7 ,11.8 ,9.0 
2004/1/2,22:00:00,9.6 ,59.0 ,9.7 ,11.8 ,9.0 
2004/1/2,22:15:00,9.6 ,59.1 ,9.7 ,11.8 ,9.0 
2004/1/2,22:30:00,9.6 ,59.3 ,9.7 ,11.8 ,9.0 
2004/1/2,22:45:00,9.6 ,58.6 ,9.7 ,11.8 ,8.9 
2004/1/2,23:00:00,9.6 ,59.4 ,9.7 ,11.8 ,8.9 
2004/1/2,23:15:00,9.5 ,59.2 ,9.6 ,11.8 ,8.9 
2004/1/2,23:30:00,9.5 ,59.3 ,9.6 ,11.8 ,8.9 
2004/1/2,23:45:00,9.5 ,59.3 ,9.6 ,11.8 ,8.9 
2004/1/3,0:00:00,9.5 ,58.9 ,9.6 ,11.8 ,8.9 
2004/1/3,0:15:00,9.5 ,58.8 ,9.6 ,11.8 ,8.9 
2004/1/3,0:30:00,9.5 ,59.1 ,9.6 ,11.8 ,8.9 
2004/1/3,0:45:00,9.5 ,58.9 ,9.6 ,11.8 ,8.9 
2004/1/3,1:00:00,9.5 ,59.3 ,9.6 ,11.8 ,8.9 
2004/1/3,1:15:00,9.5 ,59.0 ,9.6 ,11.8 ,8.9 
2004/1/3,1:30:00,9.5 ,59.4 ,9.6 ,11.7 ,8.9 
2004/1/3,1:45:00,9.5 ,59.4 ,9.5 ,11.7 ,8.8 
2004/1/3,2:00:00,9.4 ,59.4 ,9.5 ,11.8 ,8.8 
2004/1/3,2:15:00,9.4 ,59.6 ,9.5 ,11.7 ,8.8 
2004/1/3,2:30:00,9.4 ,59.7 ,9.5 ,11.7 ,8.8 
2004/1/3,2:45:00,9.4 ,60.2 ,9.5 ,11.7 ,8.8 
2004/1/3,3:00:00,9.4 ,59.8 ,9.5 ,11.7 ,8.8 
2004/1/3,3:15:00,9.4 ,59.8 ,9.5 ,11.7 ,8.8 
2004/1/3,3:30:00,9.4 ,59.5 ,9.5 ,11.7 ,8.8 
2004/1/3,3:45:00,9.4 ,59.8 ,9.5 ,11.7 ,8.8 
2004/1/3,4:00:00,9.4 ,59.5 ,9.4 ,11.7 ,8.8 
2004/1/3,4:15:00,9.4 ,59.6 ,9.4 ,11.7 ,8.7 
2004/1/3,4:30:00,9.3 ,59.6 ,9.4 ,11.7 ,8.7 
2004/1/3,4:45:00,9.3 ,59.8 ,9.4 ,11.7 ,8.7 
2004/1/3,5:00:00,9.3 ,59.9 ,9.4 ,11.7 ,8.7 
2004/1/3,5:15:00,9.3 ,60.3 ,9.4 ,11.7 ,8.7 
2004/1/3,5:30:00,9.3 ,59.6 ,9.4 ,11.7 ,8.7 
2004/1/3,5:45:00,9.3 ,59.8 ,9.4 ,11.7 ,8.7 
2004/1/3,6:00:00,9.3 ,60.1 ,9.4 ,11.7 ,8.7 
2004/1/3,6:15:00,9.3 ,60.1 ,9.4 ,11.7 ,8.7 
2004/1/3,6:30:00,9.3 ,59.6 ,9.4 ,11.7 ,8.7 
2004/1/3,6:45:00,9.3 ,60.3 ,9.4 ,11.7 ,8.7 
2004/1/3,7:00:00,9.3 ,59.8 ,9.3 ,11.7 ,8.7 
2004/1/3,7:15:00,9.3 ,60.3 ,9.3 ,11.7 ,8.7 
2004/1/3,7:30:00,9.3 ,60.2 ,9.3 ,11.7 ,8.7 
2004/1/3,7:45:00,9.2 ,60.3 ,9.3 ,11.7 ,8.6 
2004/1/3,8:00:00,9.2 ,60.0 ,9.3 ,11.7 ,8.6 
2004/1/3,8:15:00,9.2 ,59.8 ,9.3 ,11.6 ,8.6 
2004/1/3,8:30:00,9.2 ,60.2 ,9.3 ,11.6 ,8.6 
2004/1/3,8:45:00,9.2 ,60.1 ,9.3 ,11.6 ,8.6 
2004/1/3,9:00:00,9.2 ,60.0 ,9.3 ,11.6 ,8.6 
2004/1/3,9:15:00,9.2 ,60.0 ,9.3 ,11.6 ,8.7 
2004/1/3,9:30:00,9.2 ,60.3 ,9.3 ,11.6 ,8.7 
2004/1/3,9:45:00,9.2 ,60.7 ,9.3 ,11.6 ,8.7 
2004/1/3,10:00:00,9.2 ,60.5 ,9.3 ,11.6 ,8.7 
2004/1/3,10:15:00,9.2 ,60.1 ,9.3 ,11.6 ,8.7 
2004/1/3,10:30:00,9.2 ,59.7 ,9.3 ,11.6 ,8.8 
2004/1/3,10:45:00,9.2 ,59.5 ,9.3 ,11.6 ,8.8 
2004/1/3,11:00:00,9.2 ,60.0 ,9.3 ,11.6 ,8.8 
2004/1/3,11:15:00,9.2 ,60.6 ,9.3 ,11.6 ,8.8 
2004/1/3,11:30:00,9.2 ,60.2 ,9.3 ,11.6 ,8.8 
2004/1/3,11:45:00,9.2 ,60.0 ,9.3 ,11.6 ,8.8 
2004/1/3,12:00:00,9.2 ,60.5 ,9.3 ,11.6 ,8.8 
2004/1/3,12:15:00,9.2 ,60.6 ,9.4 ,11.6 ,8.8 
2004/1/3,12:30:00,9.3 ,60.2 ,9.4 ,11.6 ,8.8 
2004/1/3,12:45:00,9.2 ,60.8 ,9.4 ,11.6 ,8.8 
2004/1/3,13:00:00,9.3 ,60.7 ,9.4 ,11.6 ,8.8 
2004/1/3,13:15:00,9.3 ,60.6 ,9.4 ,11.6 ,8.9 
2004/1/3,13:30:00,9.3 ,60.7 ,9.4 ,11.6 ,8.9 
2004/1/3,13:45:00,9.3 ,60.6 ,9.4 ,11.6 ,8.9 
2004/1/3,14:00:00,9.3 ,60.8 ,9.4 ,11.5 ,8.9 
2004/1/3,14:15:00,9.3 ,60.4 ,9.4 ,11.5 ,8.9 
2004/1/3,14:30:00,9.3 ,60.1 ,9.4 ,11.5 ,8.9 
2004/1/3,14:45:00,9.3 ,60.2 ,9.4 ,11.5 ,8.9 
2004/1/3,15:00:00,9.3 ,60.0 ,9.4 ,11.5 ,8.9 
2004/1/3,15:15:00,9.3 ,59.9 ,9.4 ,11.5 ,8.9 
2004/1/3,15:30:00,9.3 ,60.2 ,9.4 ,11.5 ,8.9 
2004/1/3,15:45:00,9.3 ,60.1 ,9.4 ,11.5 ,8.9 
2004/1/3,16:00:00,9.3 ,60.1 ,9.4 ,11.5 ,8.9 
2004/1/3,16:15:00,9.3 ,60.5 ,9.4 ,11.5 ,8.9 
2004/1/3,16:30:00,9.3 ,59.9 ,9.4 ,11.5 ,8.9 
2004/1/3,16:45:00,9.3 ,60.4 ,9.4 ,11.5 ,8.8 
2004/1/3,17:00:00,9.3 ,60.3 ,9.4 ,11.5 ,8.8 
2004/1/3,17:15:00,9.3 ,60.4 ,9.4 ,11.5 ,8.8 
2004/1/3,17:30:00,9.3 ,60.3 ,9.4 ,11.5 ,8.8 
2004/1/3,17:45:00,9.2 ,60.5 ,9.4 ,11.5 ,8.8 
2004/1/3,18:00:00,9.2 ,60.4 ,9.4 ,11.5 ,8.8 
2004/1/3,18:15:00,9.2 ,59.8 ,9.4 ,11.5 ,8.8 
2004/1/3,18:30:00,9.2 ,60.2 ,9.4 ,11.5 ,8.8 
2004/1/3,18:45:00,9.2 ,60.4 ,9.4 ,11.5 ,8.7 
2004/1/3,19:00:00,9.2 ,59.6 ,9.4 ,11.5 ,8.7 
2004/1/3,19:15:00,9.2 ,59.8 ,9.4 ,11.5 ,8.7 
2004/1/3,19:30:00,9.2 ,59.6 ,9.3 ,11.5 ,8.7 
2004/1/3,19:45:00,9.2 ,59.7 ,9.3 ,11.5 ,8.7 
2004/1/3,20:00:00,9.2 ,59.6 ,9.3 ,11.5 ,8.7 
2004/1/3,20:15:00,9.2 ,59.5 ,9.3 ,11.5 ,8.7 
2004/1/3,20:30:00,9.1 ,59.5 ,9.3 ,11.5 ,8.7 
2004/1/3,20:45:00,9.1 ,59.1 ,9.3 ,11.5 ,8.6 
2004/1/3,21:00:00,9.1 ,59.6 ,9.3 ,11.5 ,8.6 
2004/1/3,21:15:00,9.1 ,59.2 ,9.3 ,11.5 ,8.6 
2004/1/3,21:30:00,9.1 ,59.1 ,9.3 ,11.5 ,8.6 
2004/1/3,21:45:00,9.1 ,59.1 ,9.2 ,11.5 ,8.6 
2004/1/3,22:00:00,9.1 ,58.8 ,9.2 ,11.4 ,8.6 
2004/1/3,22:15:00,9.1 ,58.6 ,9.2 ,11.4 ,8.6 
2004/1/3,22:30:00,9.1 ,58.3 ,9.2 ,11.4 ,8.6 
2004/1/3,22:45:00,9.0 ,58.8 ,9.2 ,11.4 ,8.5 
2004/1/3,23:00:00,9.0 ,58.3 ,9.2 ,11.4 ,8.5 
2004/1/3,23:15:00,9.0 ,58.2 ,9.1 ,11.4 ,8.5 
2004/1/3,23:30:00,9.0 ,58.9 ,9.1 ,11.4 ,8.5 
2004/1/3,23:45:00,9.0 ,58.4 ,9.1 ,11.4 ,8.5 
2004/1/4,0:00:00,9.0 ,58.0 ,9.1 ,11.4 ,8.4 
2004/1/4,0:15:00,8.9 ,57.9 ,9.1 ,11.4 ,8.4 
2004/1/4,0:30:00,8.9 ,57.6 ,9.1 ,11.4 ,8.4 
2004/1/4,0:45:00,8.9 ,57.7 ,9.0 ,11.4 ,8.4 
2004/1/4,1:00:00,8.9 ,58.0 ,9.0 ,11.4 ,8.4 
2004/1/4,1:15:00,8.9 ,58.3 ,9.0 ,11.4 ,8.3 
2004/1/4,1:30:00,8.9 ,58.2 ,9.0 ,11.4 ,8.3 
2004/1/4,1:45:00,8.8 ,58.4 ,9.0 ,11.4 ,8.3 
2004/1/4,2:00:00,8.8 ,58.4 ,9.0 ,11.4 ,8.2 
2004/1/4,2:15:00,8.8 ,57.8 ,8.9 ,11.4 ,8.2 
2004/1/4,2:30:00,8.8 ,57.8 ,8.9 ,11.4 ,8.2 
2004/1/4,2:45:00,8.8 ,58.2 ,8.9 ,11.3 ,8.2 
2004/1/4,3:00:00,8.7 ,57.8 ,8.9 ,11.3 ,8.1 
2004/1/4,3:15:00,8.7 ,57.9 ,8.9 ,11.3 ,8.1 
2004/1/4,3:30:00,8.7 ,57.8 ,8.8 ,11.3 ,8.1 
2004/1/4,3:45:00,8.7 ,57.6 ,8.8 ,11.3 ,8.1 
2004/1/4,4:00:00,8.7 ,57.8 ,8.8 ,11.3 ,8.1 
2004/1/4,4:15:00,8.6 ,57.6 ,8.8 ,11.3 ,8.0 
2004/1/4,4:30:00,8.6 ,57.3 ,8.8 ,11.3 ,8.0 
2004/1/4,4:45:00,8.6 ,57.5 ,8.8 ,11.3 ,8.0 
2004/1/4,5:00:00,8.6 ,57.5 ,8.7 ,11.3 ,8.0 
2004/1/4,5:15:00,8.6 ,57.0 ,8.7 ,11.3 ,7.9 
2004/1/4,5:30:00,8.5 ,56.6 ,8.7 ,11.3 ,7.9 
2004/1/4,5:45:00,8.5 ,56.7 ,8.7 ,11.3 ,7.9 
2004/1/4,6:00:00,8.5 ,56.3 ,8.6 ,11.2 ,7.9 
2004/1/4,6:15:00,8.5 ,56.2 ,8.6 ,11.2 ,7.9 
2004/1/4,6:30:00,8.4 ,56.3 ,8.6 ,11.2 ,7.8 
2004/1/4,6:45:00,8.4 ,55.9 ,8.6 ,11.2 ,7.8 
2004/1/4,7:00:00,8.4 ,55.9 ,8.5 ,11.2 ,7.8 
2004/1/4,7:15:00,8.4 ,56.0 ,8.5 ,11.2 ,7.8 
2004/1/4,7:30:00,8.3 ,55.9 ,8.5 ,11.2 ,7.8 
2004/1/4,7:45:00,8.3 ,55.8 ,8.5 ,11.2 ,7.7 
2004/1/4,8:00:00,8.3 ,55.6 ,8.5 ,11.2 ,7.7 
2004/1/4,8:15:00,8.3 ,55.4 ,8.6 ,11.2 ,7.9 
2004/1/4,8:30:00,8.3 ,55.8 ,8.8 ,11.1 ,8.2 
2004/1/4,8:45:00,8.4 ,55.0 ,9.1 ,11.1 ,8.5 
2004/1/4,9:00:00,8.4 ,54.8 ,9.3 ,11.1 ,8.7 
2004/1/4,9:15:00,8.4 ,54.5 ,9.5 ,11.1 ,8.9 
2004/1/4,9:30:00,8.4 ,54.3 ,9.6 ,11.1 ,9.0 
2004/1/4,9:45:00,8.5 ,54.1 ,9.8 ,11.1 ,9.0 
2004/1/4,10:00:00,8.5 ,54.2 ,9.8 ,11.1 ,9.1 
2004/1/4,10:15:00,8.5 ,54.0 ,9.9 ,11.1 ,9.1 
2004/1/4,10:30:00,8.6 ,54.1 ,10.1 ,11.1 ,9.1 
2004/1/4,10:45:00,8.6 ,53.8 ,10.2 ,11.1 ,9.1 
2004/1/4,11:00:00,8.6 ,53.7 ,10.4 ,11.0 ,9.2 
2004/1/4,11:15:00,8.7 ,53.6 ,10.6 ,11.0 ,9.2 
2004/1/4,11:30:00,8.7 ,53.6 ,10.8 ,11.0 ,9.3 
2004/1/4,11:45:00,8.7 ,53.6 ,10.8 ,11.0 ,9.3 
2004/1/4,12:00:00,8.8 ,53.7 ,10.7 ,11.0 ,9.3 
2004/1/4,12:15:00,10.5 ,50.2 ,10.7 ,11.0 ,9.9 
2004/1/4,12:30:00,12.3 ,48.4 ,10.9 ,11.0 ,11.2 
2004/1/4,12:45:00,13.8 ,46.3 ,11.2 ,9.0 ,12.5 
2004/1/4,13:00:00,14.8 ,46.4 ,11.5 ,9.1 ,13.6 
2004/1/4,13:15:00,15.6 ,45.9 ,11.7 ,9.1 ,14.4 
2004/1/4,13:30:00,16.6 ,43.7 ,11.8 ,8.5 ,15.2 
2004/1/4,13:45:00,17.2 ,43.5 ,11.8 ,8.3 ,15.6 
2004/1/4,14:00:00,17.7 ,42.3 ,11.8 ,8.4 ,15.9 
2004/1/4,14:15:00,18.0 ,42.0 ,11.8 ,8.4 ,16.3 
2004/1/4,14:30:00,18.5 ,41.2 ,11.9 ,8.5 ,16.6 
2004/1/4,14:45:00,18.8 ,41.0 ,11.9 ,8.5 ,16.9 
2004/1/4,15:00:00,19.0 ,40.9 ,12.0 ,8.6 ,17.2 
2004/1/4,15:15:00,19.4 ,40.6 ,12.1 ,8.6 ,17.4 
2004/1/4,15:30:00,19.8 ,39.7 ,12.1 ,8.7 ,17.8 
2004/1/4,15:45:00,20.0 ,39.6 ,12.2 ,8.8 ,18.0 
2004/1/4,16:00:00,19.7 ,40.3 ,12.3 ,8.6 ,21.4 
2004/1/4,16:15:00,19.5 ,40.7 ,12.4 ,8.6 ,21.8 
2004/1/4,16:30:00,19.9 ,40.3 ,12.5 ,8.7 ,20.8 
2004/1/4,16:45:00,19.9 ,41.1 ,12.8 ,8.7 ,20.0 
2004/1/4,17:00:00,19.9 ,41.3 ,13.3 ,8.8 ,19.6 
2004/1/4,17:15:00,20.1 ,41.3 ,13.2 ,8.9 ,19.4 
2004/1/4,17:30:00,20.1 ,41.9 ,14.3 ,9.0 ,19.2 
2004/1/4,17:45:00,20.1 ,41.7 ,15.1 ,9.0 ,19.1 
2004/1/4,18:00:00,20.2 ,41.0 ,15.6 ,9.1 ,18.9 
2004/1/4,18:15:00,20.3 ,41.3 ,16.4 ,9.2 ,18.9 
2004/1/4,18:30:00,20.3 ,43.1 ,16.9 ,9.3 ,20.9 
2004/1/4,18:45:00,20.4 ,44.0 ,16.6 ,9.3 ,21.2 
2004/1/4,19:00:00,20.6 ,42.8 ,16.5 ,9.4 ,20.5 
2004/1/4,19:15:00,20.7 ,42.1 ,16.4 ,9.5 ,20.0 
2004/1/4,19:30:00,20.8 ,42.1 ,16.3 ,9.6 ,19.6 
2004/1/4,19:45:00,20.8 ,41.6 ,16.1 ,9.7 ,19.3 
2004/1/4,20:00:00,20.9 ,41.5 ,16.0 ,9.8 ,19.1 
2004/1/4,20:15:00,20.9 ,42.0 ,16.0 ,9.9 ,19.0 
2004/1/4,20:30:00,20.9 ,42.2 ,15.9 ,10.0 ,18.9 
2004/1/4,20:45:00,20.9 ,41.9 ,15.9 ,9.2 ,18.9 
2004/1/4,21:00:00,21.0 ,41.9 ,15.9 ,9.3 ,18.9 
2004/1/4,21:15:00,21.0 ,41.7 ,15.9 ,9.4 ,18.9 
2004/1/4,21:30:00,20.8 ,42.8 ,16.6 ,9.5 ,18.8 
2004/1/4,21:45:00,20.3 ,41.4 ,16.6 ,9.6 ,18.5 
2004/1/4,22:00:00,19.9 ,42.6 ,16.4 ,9.7 ,18.2 
2004/1/4,22:15:00,19.8 ,43.4 ,16.2 ,9.8 ,17.9 
2004/1/4,22:30:00,19.6 ,44.3 ,16.1 ,9.8 ,17.8 
2004/1/4,22:45:00,19.6 ,44.3 ,16.1 ,9.9 ,17.7 
2004/1/4,23:00:00,19.5 ,44.9 ,16.0 ,10.1 ,17.6 
2004/1/4,23:15:00,19.5 ,45.8 ,16.0 ,10.2 ,17.6 
2004/1/4,23:30:00,19.4 ,45.6 ,15.9 ,10.3 ,17.5 
2004/1/4,23:45:00,19.4 ,45.2 ,15.9 ,9.4 ,17.5 
2004/1/5,0:00:00,19.2 ,44.9 ,15.9 ,9.4 ,17.5 
2004/1/5,0:15:00,19.2 ,44.7 ,15.8 ,9.4 ,17.3 
2004/1/5,0:30:00,19.1 ,44.7 ,15.8 ,9.5 ,17.2 
2004/1/5,0:45:00,19.1 ,44.6 ,15.8 ,9.6 ,17.2 
2004/1/5,1:00:00,19.0 ,44.3 ,15.7 ,9.7 ,17.1 
2004/1/5,1:15:00,18.9 ,44.2 ,15.7 ,9.8 ,17.1 
2004/1/5,1:30:00,18.9 ,44.3 ,15.7 ,9.9 ,17.1 
2004/1/5,1:45:00,18.9 ,44.3 ,15.6 ,10.0 ,17.0 
2004/1/5,2:00:00,18.8 ,44.3 ,15.6 ,10.1 ,17.0 
2004/1/5,2:15:00,18.8 ,44.3 ,15.6 ,10.2 ,16.9 
2004/1/5,2:30:00,18.8 ,44.6 ,15.5 ,10.3 ,16.9 
2004/1/5,2:45:00,18.7 ,44.5 ,15.5 ,10.4 ,16.9 
2004/1/5,3:00:00,18.7 ,44.2 ,15.5 ,10.6 ,16.8 
2004/1/5,3:15:00,18.6 ,44.5 ,15.4 ,10.7 ,16.7 
2004/1/5,3:30:00,18.6 ,44.2 ,15.4 ,10.8 ,16.7 
2004/1/5,3:45:00,18.6 ,43.9 ,15.4 ,10.9 ,16.6 
2004/1/5,4:00:00,18.5 ,43.8 ,15.3 ,11.0 ,16.6 
2004/1/5,4:15:00,18.5 ,43.9 ,15.3 ,11.1 ,16.5 
2004/1/5,4:30:00,18.5 ,44.1 ,15.3 ,11.2 ,16.6 
2004/1/5,4:45:00,18.5 ,43.9 ,15.2 ,11.3 ,16.6 
2004/1/5,5:00:00,18.4 ,43.8 ,15.2 ,11.4 ,16.6 
2004/1/5,5:15:00,18.4 ,43.8 ,15.2 ,11.5 ,16.6 
2004/1/5,5:30:00,18.4 ,43.5 ,15.2 ,11.6 ,16.6 
2004/1/5,5:45:00,18.4 ,43.8 ,15.1 ,11.7 ,16.5 
2004/1/5,6:00:00,18.4 ,43.2 ,15.1 ,11.8 ,16.5 
2004/1/5,6:15:00,18.4 ,43.6 ,15.1 ,11.8 ,16.5 
2004/1/5,6:30:00,18.4 ,43.2 ,15.1 ,11.9 ,16.5 
2004/1/5,6:45:00,18.4 ,44.2 ,15.1 ,9.8 ,16.5 
2004/1/5,7:00:00,18.4 ,44.3 ,15.1 ,9.9 ,16.5 
2004/1/5,7:15:00,18.8 ,41.7 ,15.0 ,9.0 ,16.5 
2004/1/5,7:30:00,18.7 ,42.9 ,15.0 ,8.5 ,16.6 
2004/1/5,7:45:00,19.0 ,41.9 ,15.0 ,8.6 ,16.8 
2004/1/5,8:00:00,19.2 ,41.9 ,15.8 ,8.7 ,17.0 
2004/1/5,8:15:00,19.3 ,42.0 ,15.8 ,8.7 ,17.2 
2004/1/5,8:30:00,19.4 ,42.0 ,15.7 ,8.8 ,17.3 
2004/1/5,8:45:00,19.6 ,41.8 ,15.6 ,8.9 ,17.5 
2004/1/5,9:00:00,19.3 ,42.6 ,15.6 ,9.0 ,19.1 
2004/1/5,9:15:00,19.6 ,41.2 ,15.7 ,9.1 ,19.2 
2004/1/5,9:30:00,19.8 ,41.5 ,15.6 ,9.2 ,19.2 
2004/1/5,9:45:00,19.9 ,41.6 ,15.6 ,9.3 ,18.9 
2004/1/5,10:00:00,19.9 ,41.9 ,15.7 ,9.4 ,18.5 
2004/1/5,10:15:00,20.0 ,41.2 ,15.6 ,9.5 ,18.3 
2004/1/5,10:30:00,19.9 ,41.6 ,15.7 ,9.6 ,18.2 
2004/1/5,10:45:00,19.9 ,42.0 ,15.8 ,9.7 ,18.2 
2004/1/5,11:00:00,20.1 ,41.1 ,15.8 ,9.7 ,18.2 
2004/1/5,11:15:00,20.2 ,40.9 ,16.1 ,9.8 ,18.3 
2004/1/5,11:30:00,20.3 ,40.8 ,16.1 ,10.0 ,18.2 
2004/1/5,11:45:00,20.3 ,40.8 ,16.1 ,10.1 ,18.3 
2004/1/5,12:00:00,20.4 ,40.5 ,16.1 ,10.2 ,18.3 
2004/1/5,12:15:00,20.4 ,40.3 ,16.1 ,10.3 ,18.3 
2004/1/5,12:30:00,20.5 ,40.3 ,16.1 ,10.4 ,18.4 
2004/1/5,12:45:00,20.5 ,40.0 ,16.1 ,10.5 ,18.4 
2004/1/5,13:00:00,20.6 ,40.0 ,16.1 ,10.7 ,18.4 
2004/1/5,13:15:00,20.6 ,39.9 ,16.1 ,10.8 ,18.4 
2004/1/5,13:30:00,20.6 ,39.4 ,16.2 ,10.9 ,18.4 
2004/1/5,13:45:00,20.5 ,39.7 ,16.3 ,11.0 ,19.2 
2004/1/5,14:00:00,20.5 ,39.8 ,16.2 ,11.1 ,18.9 
2004/1/5,14:15:00,20.5 ,40.3 ,16.1 ,11.2 ,18.7 
2004/1/5,14:30:00,20.5 ,40.0 ,16.2 ,11.3 ,18.6 
2004/1/5,14:45:00,20.5 ,39.7 ,16.1 ,11.5 ,18.5 
2004/1/5,15:00:00,20.5 ,39.6 ,16.1 ,11.6 ,18.4 
2004/1/5,15:15:00,20.5 ,40.2 ,16.1 ,11.7 ,18.4 
2004/1/5,15:30:00,20.6 ,40.4 ,16.1 ,11.8 ,18.3 
2004/1/5,15:45:00,20.6 ,40.4 ,16.1 ,11.9 ,18.3 
2004/1/5,16:00:00,20.6 ,40.2 ,16.1 ,12.0 ,18.3 
2004/1/5,16:15:00,20.6 ,40.4 ,16.1 ,9.6 ,18.3 
2004/1/5,16:30:00,20.5 ,40.6 ,16.1 ,8.9 ,18.2 
2004/1/5,16:45:00,20.5 ,40.1 ,16.1 ,9.0 ,18.2 
2004/1/5,17:00:00,20.4 ,39.9 ,16.1 ,9.1 ,21.5 
2004/1/5,17:15:00,20.5 ,40.3 ,16.0 ,9.2 ,20.7 
2004/1/5,17:30:00,20.5 ,40.3 ,16.0 ,9.3 ,19.5 
2004/1/5,17:45:00,20.5 ,39.9 ,16.0 ,9.4 ,19.0 
2004/1/5,18:00:00,20.5 ,40.0 ,16.0 ,9.5 ,18.8 
2004/1/5,18:15:00,20.4 ,40.6 ,16.0 ,9.6 ,18.5 
2004/1/5,18:30:00,20.4 ,40.0 ,16.0 ,9.7 ,18.4 
2004/1/5,18:45:00,20.4 ,40.6 ,16.3 ,9.8 ,18.3 
2004/1/5,19:00:00,20.5 ,39.8 ,16.1 ,9.9 ,18.2 
2004/1/5,19:15:00,20.3 ,40.0 ,16.7 ,9.2 ,21.7 
2004/1/5,19:30:00,20.2 ,39.3 ,16.5 ,9.2 ,22.3 
2004/1/5,19:45:00,20.2 ,38.9 ,16.3 ,9.3 ,22.2 
2004/1/5,20:00:00,20.1 ,39.2 ,16.2 ,9.4 ,24.2 
2004/1/5,20:15:00,20.3 ,39.1 ,16.1 ,9.5 ,23.0 
2004/1/5,20:30:00,20.4 ,38.8 ,16.1 ,9.6 ,21.2 
2004/1/5,20:45:00,20.3 ,38.7 ,16.1 ,9.7 ,20.0 
2004/1/5,21:00:00,20.2 ,39.3 ,16.1 ,9.8 ,19.6 
2004/1/5,21:15:00,19.9 ,40.5 ,16.0 ,9.9 ,19.1 
2004/1/5,21:30:00,19.8 ,40.2 ,16.0 ,10.1 ,18.8 
2004/1/5,21:45:00,19.7 ,40.0 ,15.9 ,10.2 ,18.6 
2004/1/5,22:00:00,19.5 ,40.4 ,15.9 ,10.3 ,18.3 
2004/1/5,22:15:00,19.4 ,39.9 ,15.9 ,10.4 ,18.4 
2004/1/5,22:30:00,19.3 ,39.9 ,15.8 ,10.6 ,22.8 
2004/1/5,22:45:00,19.6 ,39.7 ,15.7 ,10.7 ,21.7 
2004/1/5,23:00:00,19.6 ,39.7 ,15.7 ,10.8 ,20.2 
2004/1/5,23:15:00,19.6 ,40.1 ,15.6 ,10.9 ,19.3 
2004/1/5,23:30:00,19.5 ,39.6 ,15.6 ,11.0 ,18.9 
2004/1/5,23:45:00,19.7 ,39.0 ,15.6 ,11.1 ,18.5 
2004/1/6,0:00:00,19.7 ,38.8 ,15.5 ,11.2 ,18.4 
2004/1/6,0:15:00,19.8 ,38.3 ,15.5 ,9.4 ,18.2 
2004/1/6,0:30:00,19.7 ,38.3 ,15.5 ,8.7 ,18.0 
2004/1/6,0:45:00,19.7 ,38.2 ,15.4 ,8.7 ,17.9 
2004/1/6,1:00:00,19.7 ,38.0 ,15.4 ,8.8 ,17.7 
2004/1/6,1:15:00,19.7 ,38.2 ,15.4 ,8.9 ,17.6 
2004/1/6,1:30:00,19.7 ,37.9 ,15.4 ,9.1 ,17.6 
2004/1/6,1:45:00,19.7 ,37.7 ,15.3 ,9.2 ,17.5 
2004/1/6,2:00:00,19.7 ,37.8 ,15.3 ,9.3 ,17.4 
2004/1/6,2:15:00,19.6 ,37.9 ,15.3 ,9.4 ,17.3 
2004/1/6,2:30:00,19.6 ,37.8 ,15.3 ,9.5 ,17.3 
2004/1/6,2:45:00,19.7 ,37.5 ,15.2 ,9.6 ,17.4 
2004/1/6,3:00:00,19.7 ,37.6 ,15.2 ,9.7 ,17.4 
2004/1/6,3:15:00,19.7 ,37.6 ,15.2 ,9.8 ,17.3 
2004/1/6,3:30:00,19.4 ,38.0 ,15.2 ,9.9 ,17.1 
2004/1/6,3:45:00,19.5 ,37.7 ,15.1 ,10.0 ,17.1 
2004/1/6,4:00:00,19.6 ,37.4 ,15.1 ,10.1 ,17.2 
2004/1/6,4:15:00,19.6 ,37.5 ,15.1 ,10.3 ,17.2 
2004/1/6,4:30:00,19.4 ,37.9 ,15.1 ,10.4 ,17.2 
2004/1/6,4:45:00,19.4 ,38.0 ,15.0 ,10.5 ,17.1 
2004/1/6,5:00:00,19.5 ,37.7 ,15.0 ,10.6 ,17.0 
2004/1/6,5:15:00,19.6 ,37.3 ,15.0 ,10.7 ,17.0 
2004/1/6,5:30:00,19.6 ,37.4 ,15.0 ,10.8 ,17.1 
2004/1/6,5:45:00,19.2 ,38.2 ,15.0 ,11.0 ,17.1 
2004/1/6,6:00:00,19.4 ,37.7 ,15.0 ,11.1 ,17.1 
2004/1/6,6:15:00,19.5 ,37.6 ,14.9 ,11.2 ,17.1 
2004/1/6,6:30:00,19.5 ,37.7 ,14.9 ,11.3 ,17.1 
2004/1/6,6:45:00,19.5 ,38.3 ,15.3 ,8.8 ,17.0 
2004/1/6,7:00:00,19.4 ,39.5 ,15.2 ,8.5 ,17.0 
2004/1/6,7:15:00,19.4 ,39.4 ,15.1 ,8.6 ,17.1 
2004/1/6,7:30:00,19.3 ,39.0 ,15.0 ,8.3 ,18.8 
2004/1/6,7:45:00,19.3 ,38.5 ,15.0 ,8.3 ,18.9 
2004/1/6,8:00:00,19.4 ,38.1 ,15.0 ,8.4 ,19.1 